www.pogodaiklimat.ru

Погода и климат >> Архив погоды >> Россия >> Забайкальский край >> Борзя


АРХИВ ПОГОДЫ в Борзе

Время (UTC), дата Ветер
(напр.,м/с)
 
Видим.   Явления Облачность Т
(С)
Тd
(С)
f
(%)
Тe
(С)
Тes
(С)
Комфортность P
(гПа)
Po
(гПа)
Тmin
(С)
Tmax
(С)
R
(мм)
R24
(мм)
S
(см)
15 15.09 ЮЗ 2 н/о 1/0
[Ci sp]
+1.8 -8.7 46 -1 -1 1017.3 936.1
18 15.09 ЮВ 1 н/о 3/0
[Ci sp]
+2.3 -5.8 55 +1 +1 1016.8 935.8
21 15.09 ЮЗ 2 н/о 9/3 600 м
[Cb calv Ac lent Ci sp]
+4.7 -5.7 47 +3 +3 1015.1 934.9
00 16.09 ЮЗ 4 50 км 3/0
[Ac lent Ci sp]
+7.1 -1.6 54 +4 +5 1014.5 935.0 +1.2
03 16.09 З 6
{10}
50 км 8/0
[Ac lent Ci sp]
+14.5 +0.4 38 +13 +15 1011.3 934.1
06 16.09 З 6-10
{12}
50 км 9/6 600 м
[Cb calv Ac lent Ci sp]
+16.6 +0.7 34 +16 +16 1008.0 931.6
09 16.09 ЮЗ 5
{12}
50 км 9/3 1000 м
[Cb calv Ac lent Ci sp]
+16.2 -0.1 33 +15 +16 1006.2 929.7
12 16.09 СЗ 6
{14}
н/о слаб. ливневой дождь 9/6 600 м
[Cb calv Ac lent Ci sp]
+9.6 +6.1 79 +6 +6 1008.2 930.0 +17.3 0.5
15 16.09 СЗ 3
{11}
н/о {ливн. осадки} 9/3 1000 м
[Cb calv Ac lent Ci sp]
+7.1 +3.4 77 +4 +4 1010.1 931.1
18 16.09 З 5
{11}
н/о {ливн. осадки} 9/0
[Ac lent Ci sp]
+6.0 +1.9 75 +2 +2 1011.2 931.8
21 16.09 СЗ 5
{13}
н/о 4/0
[Ci sp]
+2.6 -2.2 71 -3 -3 1014.3 933.6
00 17.09 СЗ 8-14
{15}
50 км 9/5 600 м
[Cb calv Ac lent Ci sp]
+3.6 -2.5 64 -2 -2 1016.4 935.8 +1.7 0.3
03 17.09 С 7-11
{19}
50 км 9/5 600 м
[Cb calv Ac lent Ci sp]
+7.5 -1.7 52 +3 +4 1018.5 938.8
06 17.09 СЗ 7-12
{14}
50 км 9/8 600 м
[Cb calv Ac lent Ci sp]
+8.5 -4.1 41 +5 +5 1019.6 940.1
09 17.09 СЗ 5
{12}
50 км 9/5 600 м
[Cb calv Ac lent Ci sp]
+9.5 -7.5 29 +7 +7 1019.9 940.6
12 17.09 ЮЗ 2 н/о ясно +3.7 -6.4 48 +2 +2 1023.1 942.0 +9.8
15 17.09 ЮЗ 2 н/о 3/0
[Ci fib]
-0.1 -6.0 64 -3 -3 1024.1 941.9
18 17.09 Ю 3 н/о 1/0
[Ci fib]
-0.4 -4.6 73 -5 -5 1024.4 942.0
21 17.09 ЮЗ 1 н/о 1/0
[Ci fib]
-1.9 -5.1 79 -4 -4 1025.5 942.6
00 18.09 З 1 50 км 3/0
[Ci fib]
+2.9 -3.7 62 +2 +4 1025.2 943.7 -2.7
03 18.09 З 3 50 км 5/0
[Ci fib]
+10.1 -6.1 31 +9 +15 1022.5 943.1
06 18.09 З 4 50 км 8/0
[Ci fib]
+13.1 -3.5 31 +12 +16 1019.3 941.0
09 18.09 З 3 50 км 9/0
[Ci sp]
+12.2 -2.2 37 +11 +12 1018.0 939.6
12 18.09 В 1 н/о дым 9/0
[Ci sp]
+7.1 -0.9 57 +7 +7 1018.6 938.9 +14.1
15 18.09 СВ 1 н/о 6/0
[Ci sp]
+6.1 +2.8 79 +5 +5 1018.0 938.0
18 18.09 СВ 1 н/о 3/0
[Ci sp]
+6.1 +2.8 79 +5 +5 1018.0 938.0
21 18.09 СВ 1 н/о 3/0
[Ci fib]
+1.6 +1.1 96 -0 -0 1019.0 937.7
00 19.09 штиль 0 50 км ясно +6.5 +4.7 88 +6 +8 1018.2 938.4 +0.3
03 19.09 ЮЗ 3 50 км 3/0
[Ci sp]
+14.7 +6.4 57 +14 +20 1015.4 937.9
06 19.09 З 5
{10}
50 км 8/3 1000 м
[Cu hum Ci sp]
+18.0 +4.6 41 +18 +20 1012.9 936.5
09 19.09 З 5
{10}
50 км 9/6 1000 м
[Cb calv Ci sp]
+17.2 +4.8 44 +17 +17 1012.4 935.8
12 19.09 З 3 н/о 9/4 600 м
[Cb calv Ac lent Ci sp]
+11.6 +5.7 67 +10 +10 1014.8 936.7 +18.6
15 19.09 З 2 н/о 9/3 600 м
[Cb calv Ac lent Ci sp]
+8.2 +4.0 75 +6 +6 1016.6 937.4
18 19.09 СЗ 4 н/о 9/3 600 м
[Cb calv Ac lent Ci sp]
+7.8 +3.0 72 +5 +5 1017.0 937.6
21 19.09 ЮЗ 2 н/о 6/0
[Ac lent Ci sp]
+5.7 +1.0 72 +3 +3 1019.1 938.9
00 20.09 С 2 50 км 3/0
[Ac lent]
+8.6 +0.8 58 +7 +8 1020.2 940.7 +4.7
03 20.09 СЗ 5 50 км 3/1 1000 м
[Cu hum Ci fib]
+14.0 +1.5 43 +13 +16 1019.5 941.5
06 20.09 СЗ 7-11
{11}
50 км 5/3 1000 м
[Cu med, cong Ci fib]
+16.5 +0.1 33 +15 +17 1018.5 941.2
09 20.09 СЗ 5
{11}
50 км 9/1 1000 м
[Cu hum Ci fib]
+14.7 -1.1 34 +13 +14 1020.0 942.1
12 20.09 ЮЗ 2 н/о 8/0
[Ac lent Ci sp]
+7.8 +0.8 61 +6 +6 1023.1 943.2 +16.6
15 20.09 штиль 0 н/о 9/0
[Ac lent Ci sp]
+5.8 +2.5 79 +5 +5 1024.2 943.7
18 20.09 В 1 н/о 5/0
[Ci sp]
+2.6 +1.8 94 +1 +1 1025.1 943.6
21 20.09 СВ 1 н/о 3/0
[Ci sp]
-1.0 -1.3 98 -3 -3 1026.3 943.6
00 21.09 штиль 0 50 км 8/0
[Ci fib]
+6.9 +2.3 72 +6 +8 1024.3 944.1 -1.1
03 21.09 ЮЗ 3 50 км 9/0
[Ci fib]
+17.1 +3.6 41 +17 +22 1020.9 943.6
06 21.09 З 4 50 км 9/0
[Ci sp]
+20.5 +1.9 29 +21 +25 комфорт 1018.7 942.4
09 21.09 З 3 50 км 6/0
[Ci fib]
+20.4 +3.0 32 +21 +22 комфорт 1018.2 942.0
12 21.09 ЮЗ 1 н/о 3/0
[Ci fib]
+11.1 +3.8 61 +11 +11 1021.3 942.4 +21.1
15 21.09 В 2 н/о ясно +3.8 +1.9 87 +1 +1 1023.9 942.8
18 21.09 В 3 н/о ясно +3.9 +1.7 86 0 0 1023.6 942.6
21 21.09 В 2 н/о ясно +1.9 +1.4 96 -2 -2 1024.0 942.4
00 22.09 В 2 50 км 9/0
[Ci fib]
+7.3 +3.2 75 +5 +7 1022.9 942.9 +1.3
03 22.09 В 3 50 км 9/0
[Ci fib]
+21.3 +5.2 35 +22 +27 комфорт 1017.9 942.0
06 22.09 З 5 50 км 6/0
[Ci fib]
+25.4 +1.2 21 +24 +27 комфорт 1014.8 940.0
09 22.09 З 4 50 км 4/0
[Ci fib]
+24.9 +2.4 23 +24 +24 комфорт 1014.3 939.4
12 22.09 Ю 2 н/о 6/0
[Ci fib]
+18.0 +2.1 34 +19 +19 1015.9 939.2 +26.1

 

Местоположение метеостанции Борзя (Забайкальский край, Россия): широта 50.40 долгота 116.50 высота над уровнем моря 676 м.

В архиве по умолчанию представлена погода в Борзе за последнюю неделю. Архивные данные за месяц целиком и за предыдущие месяцы, начиная с января 2011 года, Вы можете получить, выбрав интересующий диапазон дат из раскрывающегося списка и нажав кнопку "Ввод!".


*Определитесь, кто Вы:
робот инопланетянин человек

Внимание! Время в таблицах - всемирное. Для получения местного времени необходимо прибавить поправку, которая равна 9 ч.

Смотрите также архив погоды в соседних городах и на ближайших метеорологических станциях:

Погода в Бырке (Забайкальский край, Россия) (52 км)
Погода в Соловьевске (Забайкальский край, Россия) (80 км)
Погода в Оловянной (Забайкальский край, Россия) (93 км)
Погода в Нижнем Цасучее (Забайкальский край, Россия) (99 км)
Погода в Забайкальске (Забайкальский край, Россия) (103 км)
Погода в Александровском Заводе (Забайкальский край, Россия) (114 км)
Погода в Балее (Забайкальский край, Россия) (129 км)
Погода в Кайластуе (Забайкальский край, Россия) (143 км)
Погода в Могойтуе (Забайкальский край, Россия) (148 км)
Погода в Шелопугино (Забайкальский край, Россия) (156 км)

Пояснения к столбцам:

Ветер - указаны скорость ветра в м/с - средняя за 10 мин, порывы в срок и между сроками (в фигурных скобках) и направление, откуда дует ветер: С - северный, СВ - северо-восточный, В - восточный, ЮВ - юго-восточный, Ю - южный, ЮЗ - юго-западный, З - западный, СЗ - северо-западный.
Видимость - горизонтальная дальность видимости в метрах или километрах. При видимости от 1 до 10 км при отсутствии осадков обычно наблюдается дымка, при ухудшении видимости до 1 км и менее - туман. В сухую погоду видимость может ухудшаться дымом, пылью или мглою.
Явления - указаны атмосферные явления, наблюдавшиеся в срок или в последний час перед сроком; фигурными скобками обозначены явления, наблюдавшиеся между сроками (за 1-3 часа до срока); квадратными скобками обозначены град или гололедные отложения с указанием их диаметра в мм.
Облачность - указаны через наклонную черту общая и нижняя облачность в баллах и высота нижней границы облаков в метрах; квадратными скобками обозначены формы облаков: Ci - перистые, Cs - перисто-слоистые, Cc - перисто-кучевые, Ac - высококучевые, As - высокослоистые, Sc - слоисто-кучевые, Ns - слоисто-дождевые, Cu - кучевые, Cb - кучево-дождевые. Подробнее классификацию облаков см. в Атласе облаков (PDF).
T - Температура воздуха - температура, измеренная на высоте 2 м над землей.
Td - Температура точки росы - температура, при понижении до которой содержащийся в воздухе водяной пар достигнет насыщения.
f - Относительная влажность воздуха - влажноcть воздуха, измеренная на высоте 2 м над землей.
Te - Эффективная температура - температура, которую ощущает одетый по сезону человек в тени. Характеристика душности погоды. При расчете учитывается влияние влажности воздуха и скорости ветра на теплоощущения человека.
Tes - Эффективная температура на солнце - температура, которую ощущает человек, с поправкой на солнечный нагрев. Характеристика знойности погоды. Зависит от высоты солнца над горизонтом, облачности и скорости ветра. Ночью, в пасмурную погоду, а также при ветре 12 м/с и более поправка равна нулю.
P - Атмосферное давление - приведенное к уровню моря атмосферное давление.
Po - Атмосферное давление - измеренное на уровне метеостанции атмосферное давление.
Tmin - Минимальная температура - минимум температуры воздуха на высоте 2 м над землей.
Tmax - Максимальная температура - максимум температуры воздуха на высоте 2 м над землей.
R - Количество осадков - Количество выпавших осадков за период времени, мм. При наведении курсора мыши на число - период времени, за который выпало указанное количество осадков.
R24 - Количество осадков - Количество выпавших осадков за 24 часа, мм.
S - Снежный покров - Высота снежного покрова, см. При наведении курсора мыши на число - состояние снежного покрова и степень покрытия местности в баллах.